Location: Unspecified
(0.0000°N, 0.0000°E)
Time: 17:48:54
(UTC+00:00)

Explorer 11/Cluster Stage 4 - Visible Passes

Search period start: 18 January 2020 00:00
Search period end: 28 January 2020 00:00
Orbit: 467 x 1259 km, 28.8° (Epoch: 18 January)

Date Brightness Start Highest point End Pass type
(mag) Time Alt. Az. Time Alt. Az. Time Alt. Az.
25 Jan 8.5 19:11:08 10° N 19:12:42 11° NNE 19:13:26 11° NNE visible
26 Jan 8.3 18:59:00 10° NNW 19:02:13 14° NNE 19:04:06 12° NE visible
26 Jan 9.2 20:46:14 10° NW 20:46:17 10° NW 20:46:17 10° NW visible
27 Jan 8.2 18:47:23 10° NNW 18:51:40 18° NNE 18:54:52 12° ENE visible
27 Jan 8.5 20:35:16 10° NW 20:37:04 20° NW 20:37:04 20° NW visible
